Simultaneous Nadir Overpasses (SNOs) Predictions

Prediction of SNOs between GOES-16 and AQUA Satellite Orbit:

Table of predicted SNOs for the next 14.0 days since TLE Epoch: 6/20/2020
Index Date Time (GOES-16) GOES-16 Lat,Lon AQUA Lat,Lon Distance(km) Time Diff (sec)
1 06/21/2020 06:38:24 0.01, -75.20 0.06, -75.34 16.16 80
2 06/23/2020 06:23:33 -0.00, -75.21 -0.60, -72.39 321.02 80
3 06/23/2020 18:44:57 -0.00, -75.22 -0.50, -77.58 268.27 80
4 06/25/2020 18:35:25 -0.00, -75.23 0.11, -74.61 69.61 80
5 06/27/2020 18:23:14 -0.00, -75.25 0.79, -71.67 408.18 80
6 06/28/2020 06:44:29 0.01, -75.25 0.36, -76.81 178.06 80
7 06/30/2020 06:29:38 0.00, -75.28 -0.31, -73.86 160.99 80
8 06/30/2020 18:51:02 -0.00, -75.29 -0.77, -79.06 427.99 80
9 07/02/2020 18:38:50 0.01, -75.32 -0.15, -76.10 88.48 80




NCC Satellite Simultaneous Nadir Overpasses (SNOs) Prediction Service
